AAL3212 KDFW-KATL

Flight info

Callsign AAL3212
Flight time N/A
Altitude 37000
Route TRYTN4 LOOSE MEMFS HUTCC KNSAW RUSSA GLAVN2
Aircraft A321/M-SDE3FGHIRWY/LB1

Departure

Time 2026-05-06 23:43
Airport Dallas Fort Worth International Airport (KDFW)

Arrival

Time N/A
Airport Hartsfield Jackson Atlanta International Airport (KATL)
Time Latitude Longitude Altitude Speed Heading
2026-05-06 23:26 32.89680 -97.03510 587 ft 0 kts 289°
2026-05-06 23:27 32.89678 -97.03506 588 ft 0 kts 288°
2026-05-06 23:35 32.89675 -97.03492 587 ft 4 kts 288°
2026-05-06 23:36 32.89668 -97.03468 587 ft 4 kts 287°
2026-05-06 23:36 32.89662 -97.03437 587 ft 4 kts 271°
2026-05-06 23:36 32.89666 -97.03407 587 ft 3 kts 244°
2026-05-06 23:36 32.89667 -97.03404 587 ft 0 kts 243°
2026-05-06 23:38 32.89666 -97.03405 587 ft 1 kts 241°
2026-05-06 23:39 32.89656 -97.03403 587 ft 4 kts 169°
2026-05-06 23:39 32.89613 -97.03343 587 ft 14 kts 126°
2026-05-06 23:39 32.89509 -97.03317 586 ft 18 kts 180°
2026-05-06 23:39 32.89375 -97.03317 585 ft 20 kts 180°
2026-05-06 23:40 32.89226 -97.03317 583 ft 22 kts 180°
2026-05-06 23:40 32.89066 -97.03319 583 ft 24 kts 180°
2026-05-06 23:40 32.88896 -97.03320 582 ft 25 kts 180°
2026-05-06 23:40 32.88721 -97.03321 583 ft 26 kts 180°
2026-05-06 23:41 32.88537 -97.03318 579 ft 29 kts 172°
2026-05-06 23:41 32.88337 -97.03288 579 ft 29 kts 181°
2026-05-06 23:41 32.88130 -97.03288 575 ft 30 kts 180°
2026-05-06 23:41 32.87980 -97.03239 583 ft 17 kts 101°
2026-05-06 23:42 32.87976 -97.03102 575 ft 17 kts 91°
2026-05-06 23:42 32.88036 -97.03009 573 ft 16 kts
2026-05-06 23:42 32.88231 -97.03007 577 ft 58 kts
2026-05-06 23:42 32.88885 -97.03003 573 ft 127 kts
2026-05-06 23:43 32.89944 -97.03000 685 ft 166 kts
2026-05-06 23:43 32.91072 -97.03014 1450 ft 160 kts
2026-05-06 23:43 32.92194 -97.02997 2207 ft 162 kts
2026-05-06 23:43 32.93360 -97.02964 2801 ft 176 kts
2026-05-06 23:44 32.94650 -97.02920 3154 ft 197 kts
2026-05-06 23:44 32.96068 -97.02869 3428 ft 218 kts
2026-05-06 23:44 32.97690 -97.02823 3766 ft 245 kts
2026-05-06 23:44 32.99448 -97.02774 4499 ft 255 kts
2026-05-06 23:45 33.01247 -97.02724 5275 ft 263 kts 360°
2026-05-06 23:45 33.03115 -97.02672 6042 ft 273 kts 358°
2026-05-06 23:45 33.05013 -97.02502 6741 ft 283 kts 12°
2026-05-06 23:45 33.06753 -97.01332 7420 ft 296 kts 42°
2026-05-06 23:46 33.07871 -96.99235 8034 ft 308 kts 72°
2026-05-06 23:46 33.08149 -96.96670 8643 ft 314 kts 89°
2026-05-06 23:46 33.08251 -96.94050 9352 ft 318 kts 91°
2026-05-06 23:46 33.08016 -96.91433 10051 ft 318 kts 105°
2026-05-06 23:47 33.07589 -96.88780 10440 ft 336 kts 103°
2026-05-06 23:47 33.07182 -96.85971 10689 ft 356 kts 102°
2026-05-06 23:47 33.06686 -96.82994 10983 ft 373 kts 109°
2026-05-06 23:47 33.05824 -96.80016 11240 ft 388 kts 116°
2026-05-06 23:48 33.04780 -96.76985 11588 ft 402 kts 116°
2026-05-06 23:48 33.03713 -96.73919 12209 ft 406 kts 116°
2026-05-06 23:48 33.02626 -96.70768 12826 ft 412 kts 116°
2026-05-06 23:48 33.01536 -96.67585 13436 ft 417 kts 116°
2026-05-06 23:49 33.00433 -96.64364 13993 ft 423 kts 116°
2026-05-06 23:49 32.99315 -96.61099 14548 ft 428 kts 117°
2026-05-06 23:49 32.98179 -96.57793 15096 ft 433 kts 117°
2026-05-06 23:49 32.97043 -96.54497 15653 ft 438 kts 118°
2026-05-06 23:50 32.95873 -96.51118 16223 ft 442 kts 118°
2026-05-06 23:50 32.93492 -96.44270 17324 ft 451 kts 120°
2026-05-06 23:50 32.92294 -96.40786 17876 ft 458 kts 117°
2026-05-06 23:51 32.91442 -96.37120 18386 ft 472 kts 106°
2026-05-06 23:51 32.91131 -96.33178 18839 ft 484 kts 94°
2026-05-06 23:51 32.91429 -96.29162 19282 ft 493 kts 81°
2026-05-06 23:51 32.92357 -96.25211 19739 ft 498 kts 69°
2026-05-06 23:52 32.93630 -96.21353 20200 ft 502 kts 69°
2026-05-06 23:52 32.94906 -96.17458 20660 ft 505 kts 69°
2026-05-06 23:52 32.96182 -96.13528 21112 ft 509 kts 69°
2026-05-06 23:52 32.97439 -96.09626 21546 ft 512 kts 69°
2026-05-06 23:53 32.98714 -96.05650 21972 ft 515 kts 69°
2026-05-06 23:53 33.00000 -96.01634 22395 ft 519 kts 69°
2026-05-06 23:53 33.01292 -95.97606 22824 ft 522 kts 68°
2026-05-06 23:53 33.02593 -95.93553 23271 ft 525 kts 68°
2026-05-06 23:54 33.03905 -95.89464 23668 ft 528 kts 68°
2026-05-06 23:54 33.05205 -95.85414 24022 ft 531 kts 68°
2026-05-06 23:54 33.06534 -95.81270 24359 ft 535 kts 68°
2026-05-06 23:54 33.07870 -95.77115 24694 ft 538 kts 68°
2026-05-06 23:55 33.09214 -95.72940 25024 ft 541 kts 68°
2026-05-06 23:55 33.10570 -95.68733 25346 ft 544 kts 69°
2026-05-06 23:55 33.11913 -95.64550 25649 ft 547 kts 69°
2026-05-06 23:55 33.13272 -95.60297 25995 ft 550 kts 69°
2026-05-06 23:56 33.14636 -95.56011 26308 ft 553 kts 69°
2026-05-06 23:56 33.16002 -95.51703 26617 ft 556 kts 69°
2026-05-06 23:56 33.16911 -95.48833 26814 ft 558 kts 69°
2026-05-06 23:56 33.18291 -95.44482 27120 ft 561 kts 69°
2026-05-06 23:57 33.19677 -95.40116 27423 ft 564 kts 69°
2026-05-06 23:57 33.21071 -95.35725 27726 ft 567 kts 69°
2026-05-06 23:57 33.22476 -95.31299 28003 ft 569 kts 69°
2026-05-06 23:57 33.23879 -95.26865 28352 ft 570 kts 69°
2026-05-06 23:58 33.25281 -95.22426 28775 ft 570 kts 70°
2026-05-06 23:58 33.26665 -95.18035 29181 ft 570 kts 70°
2026-05-06 23:58 33.28065 -95.13583 29583 ft 570 kts 70°
2026-05-06 23:58 33.29463 -95.09127 29995 ft 570 kts 70°
2026-05-06 23:59 33.30859 -95.04676 30332 ft 570 kts 70°
2026-05-06 23:59 33.32236 -95.00283 30645 ft 571 kts 70°
2026-05-06 23:59 33.33629 -94.95830 30950 ft 572 kts 70°
2026-05-06 23:59 33.35027 -94.91365 31295 ft 571 kts 70°
2026-05-07 00:00 33.36416 -94.86913 31659 ft 570 kts 70°
2026-05-07 00:00 33.37802 -94.82461 31970 ft 571 kts 70°
2026-05-07 00:00 33.39183 -94.78008 32273 ft 572 kts 70°
2026-05-07 00:00 33.40554 -94.73586 32567 ft 572 kts 70°
2026-05-07 00:01 33.41942 -94.69111 32882 ft 573 kts 70°
2026-05-07 00:01 33.43328 -94.64635 33179 ft 574 kts 70°
2026-05-07 00:01 33.44720 -94.60134 33477 ft 574 kts 70°
2026-05-07 00:01 33.46111 -94.55629 33763 ft 575 kts 70°
2026-05-07 00:02 33.47030 -94.52651 33986 ft 574 kts 70°
2026-05-07 00:02 33.48868 -94.46686 34353 ft 574 kts 70°
2026-05-07 00:02 33.50248 -94.42190 34618 ft 575 kts 70°
2026-05-07 00:02 33.51628 -94.37689 34882 ft 575 kts 70°
2026-05-07 00:03 33.53009 -94.33182 35137 ft 575 kts 70°
2026-05-07 00:03 33.54387 -94.28682 35413 ft 575 kts 70°
2026-05-07 00:03 33.55747 -94.24230 35674 ft 576 kts 70°
2026-05-07 00:03 33.57114 -94.19703 35943 ft 576 kts 70°
2026-05-07 00:04 33.58467 -94.15170 36212 ft 576 kts 70°
2026-05-07 00:04 33.59798 -94.10675 36473 ft 576 kts 70°
2026-05-07 00:04 33.61144 -94.06112 36722 ft 576 kts 70°
2026-05-07 00:04 33.62468 -94.01617 36979 ft 577 kts 70°
2026-05-07 00:05 33.65162 -93.92489 37026 ft 580 kts 70°
2026-05-07 00:05 33.67850 -93.83413 37021 ft 580 kts 70°
2026-05-07 00:06 33.70547 -93.74272 37020 ft 580 kts 70°
2026-05-07 00:06 33.73241 -93.65101 37020 ft 580 kts 70°
2026-05-07 00:07 33.75906 -93.55991 37021 ft 580 kts 70°
2026-05-07 00:07 33.78584 -93.46816 37036 ft 581 kts 70°
2026-05-07 00:08 33.81237 -93.37701 37040 ft 581 kts 70°
2026-05-07 00:08 33.83896 -93.28507 37050 ft 581 kts 70°
2026-05-07 00:09 33.86548 -93.19311 37061 ft 581 kts 70°
2026-05-07 00:09 33.89183 -93.10154 37067 ft 581 kts 70°
2026-05-07 00:10 33.92404 -93.01235 37099 ft 580 kts 64°
2026-05-07 00:10 33.95728 -92.92432 37078 ft 581 kts 64°
2026-05-07 00:11 33.99072 -92.83561 37072 ft 581 kts 64°
2026-05-07 00:11 34.02409 -92.74668 37054 ft 581 kts 64°
2026-05-07 00:12 34.05713 -92.65808 37027 ft 582 kts 64°
2026-05-07 00:12 34.09025 -92.56912 37055 ft 581 kts 64°
2026-05-07 00:13 34.12337 -92.48005 37065 ft 580 kts 64°
2026-05-07 00:13 34.15636 -92.39112 37066 ft 580 kts 64°
2026-05-07 00:14 34.18929 -92.30205 37069 ft 580 kts 64°
2026-05-07 00:14 34.22179 -92.21341 37089 ft 580 kts 66°
2026-05-07 00:15 34.23370 -92.16679 37080 ft 579 kts 82°
2026-05-07 00:15 34.23933 -92.11866 37075 ft 578 kts 85°
2026-05-07 00:15 34.24932 -92.02203 37066 ft 578 kts 86°
2026-05-07 00:16 34.25901 -91.92586 37071 ft 579 kts 86°
2026-05-07 00:16 34.26877 -91.82914 37042 ft 579 kts 85°
2026-05-07 00:17 34.27848 -91.73291 37048 ft 579 kts 85°
2026-05-07 00:17 34.28820 -91.63627 37047 ft 579 kts 85°
2026-05-07 00:18 34.29779 -91.53936 37049 ft 579 kts 86°
2026-05-07 00:18 34.30718 -91.44257 37037 ft 578 kts 85°
2026-05-07 00:19 34.31646 -91.34648 37044 ft 578 kts 85°
2026-05-07 00:19 34.32582 -91.24958 37045 ft 578 kts 85°
2026-05-07 00:20 34.33510 -91.15352 37043 ft 578 kts 86°
2026-05-07 00:20 34.34426 -91.05667 37030 ft 577 kts 86°
2026-05-07 00:21 34.35330 -90.96041 37034 ft 577 kts 86°
2026-05-07 00:21 34.36232 -90.86389 37038 ft 577 kts 86°
2026-05-07 00:22 34.37131 -90.76705 37043 ft 577 kts 86°
2026-05-07 00:22 34.38010 -90.67101 37041 ft 577 kts 86°
2026-05-07 00:23 34.38888 -90.57400 37046 ft 577 kts 86°
2026-05-07 00:23 34.39750 -90.47796 37048 ft 577 kts 86°
2026-05-07 00:24 34.40610 -90.38113 37011 ft 577 kts 86°
2026-05-07 00:24 34.41469 -90.28440 37025 ft 576 kts 86°
2026-05-07 00:25 34.42318 -90.18832 37028 ft 576 kts 86°
2026-05-07 00:25 34.43157 -90.09156 37019 ft 576 kts 86°
2026-05-07 00:26 34.43982 -89.99537 37042 ft 576 kts 86°
2026-05-07 00:26 34.44807 -89.89862 37039 ft 576 kts 86°
2026-05-07 00:27 34.45620 -89.80206 37017 ft 576 kts 87°
2026-05-07 00:27 34.46424 -89.70595 37018 ft 576 kts 87°
2026-05-07 00:28 34.47222 -89.60931 37013 ft 576 kts 87°
2026-05-07 00:28 34.48009 -89.51245 36981 ft 576 kts 87°
2026-05-07 00:29 34.48791 -89.41627 36981 ft 576 kts 87°
2026-05-07 00:30 34.50219 -89.23879 36991 ft 578 kts 87°